Litchfield, IL

9:01 PM CST on December 04, 2016 (GMT -0600)
Litchfield

Weather History for K3LF - November, 2013

Change the Weather History Date:

Thursday, November 21, 2013

  Actual Average (KALN) Record (KALN)
Temperature  
Mean Temperature 46 °F -  
Max Temperature 48 °F 51 °F 69 °F (2003)
Min Temperature 43 °F 35 °F 14 °F (2000)
Degree Days  
Heating Degree Days 20    
Moisture  
Dew Point 45 °F    
Average Humidity 94    
Maximum Humidity 100    
Minimum Humidity 79    
Precipitation  
Precipitation 0.03 in - - ()
Sea Level Pressure  
Sea Level Pressure 30.14 in    
Wind  
Wind Speed 4 mph (South)    
Max Wind Speed 14 mph    
Max Gust Speed 18 mph    
Visibility 6 miles    
Events Fog , Rain    
Averages and records for this station are not official NWS values.
T = Trace of Precipitation, MM = Missing Value Source: NWS Daily Summary

Daily Weather History Graph

Daily Weather History Graph

Search for Another Location

Airport or City:

Trip Planner

Search our weather history database for the weather conditions in past years. The results will help you decide how hot, cold, wet, or windy it might be!

Date:

Astronomy

Nov. 21, 2013 Rise Set
Actual Time 6:48 AM CST 4:40 PM CST
Civil Twilight 6:19 AM CST 5:09 PM CST
Nautical Twilight 5:47 AM CST 5:41 PM CST
Astronomical Twilight 5:15 AM CST 6:13 PM CST
Moon 8:16 PM CST (11/21) 9:55 AM CST (11/21)
Length of Visible Light 10h 49m
Length of Day
9h 51m
Waning Gibbous, 85% of the Moon is Illuminated
Nov 21
Waning Gibbous
Nov 25
Last Quarter
Dec 2
New
Dec 9
First Quarter
Dec 17
Full

Hourly Weather History & Observations

Time (CST) Temp. Windchill Dew Point Humidity Pressure Visibility Wind Dir Wind Speed Gust Speed Precip Events Conditions
12:15 AM 45.3 °F - 39.4 °F 80% 30.11 in 10.0 mi Calm Calm - N/A   Overcast
12:35 AM 44.8 °F - 39.7 °F 82% 30.11 in 10.0 mi Calm Calm - N/A   Light Drizzle
12:55 AM 44.4 °F - 39.7 °F 84% 30.10 in 10.0 mi Calm Calm - N/A   Overcast
1:15 AM 43.9 °F - 40.6 °F 88% 30.10 in 10.0 mi Calm Calm - N/A   Mostly Cloudy
1:35 AM 44.6 °F - 40.5 °F 85% 30.10 in 10.0 mi Calm Calm - N/A Rain Light Rain
1:55 AM 43.7 °F - 41.0 °F 90% 30.11 in 7.0 mi Calm Calm - N/A Rain Rain
2:15 AM 44.1 °F - 41.0 °F 89% 30.12 in 10.0 mi Calm Calm - N/A Rain Rain
2:35 AM 44.8 °F - 41.5 °F 88% 30.11 in 5.0 mi Calm Calm - N/A Rain Rain
2:55 AM 45.0 °F - 42.6 °F 91% 30.10 in 10.0 mi Calm Calm - N/A   Overcast
3:15 AM 45.5 °F 40.8 °F 41.2 °F 85% 30.10 in 10.0 mi SSE 9.2 mph - N/A   Overcast
3:35 AM 45.1 °F - 41.4 °F 87% 30.10 in 10.0 mi Calm Calm - N/A   Overcast
3:55 AM 46.2 °F 41.2 °F 41.0 °F 82% 30.10 in 10.0 mi SSE 10.4 mph - N/A   Overcast
4:15 AM 46.8 °F - 41.2 °F 81% 30.10 in 10.0 mi Calm Calm - N/A   Overcast
4:35 AM 47.3 °F - 41.0 °F 79% 30.10 in 10.0 mi Calm Calm - N/A   Overcast
4:55 AM 46.8 °F - 42.3 °F 84% 30.11 in 10.0 mi Calm Calm - N/A   Overcast
5:15 AM 46.9 °F - 41.9 °F 83% 30.10 in 10.0 mi Calm Calm - N/A   Overcast
5:35 AM 46.9 °F - 41.9 °F 83% 30.09 in 10.0 mi Calm Calm - N/A   Overcast
5:55 AM 47.3 °F - 42.3 °F 83% 30.10 in 10.0 mi SSE 5.8 mph - N/A   Overcast
6:15 AM 47.3 °F - 42.4 °F 83% 30.11 in 10.0 mi Calm Calm - N/A   Overcast
6:35 AM 46.9 °F - 41.9 °F 83% 30.12 in 10.0 mi Calm Calm - N/A   Overcast
6:55 AM 47.3 °F - 41.4 °F 80% 30.14 in 10.0 mi South 12.7 mph - N/A   Overcast
7:15 AM 47.3 °F - 41.0 °F 79% 30.14 in 10.0 mi SSE 11.5 mph - N/A   Overcast
7:35 AM 47.5 °F - 41.2 °F 79% 30.14 in 10.0 mi SSE 11.5 mph - N/A   Overcast
7:55 AM 46.8 °F - 42.8 °F 86% 30.14 in 10.0 mi South 12.7 mph - N/A   Light Drizzle
8:15 AM 46.4 °F 40.7 °F 43.2 °F 88% 30.14 in 10.0 mi SSE 12.7 mph - N/A Rain Light Rain
8:35 AM 45.7 °F 39.8 °F 43.9 °F 93% 30.15 in 10.0 mi SSE 12.7 mph - N/A Rain Light Rain
8:55 AM 45.7 °F 40.2 °F 44.6 °F 96% 30.15 in 7.0 mi SSE 11.5 mph 17.3 mph N/A   Light Drizzle
9:15 AM 46.4 °F 40.4 °F 45.5 °F 97% 30.15 in 7.0 mi SSE 13.8 mph - N/A   Light Drizzle
9:35 AM 46.6 °F - 45.7 °F 97% 30.16 in 7.0 mi SSE 12.7 mph - N/A   Overcast
9:55 AM 46.4 °F 40.4 °F 45.1 °F 95% 30.16 in 10.0 mi SSE 13.8 mph 18.4 mph N/A   Light Drizzle
10:15 AM 46.4 °F 41.1 °F 45.0 °F 95% 30.16 in 10.0 mi SSE 11.5 mph - N/A   Light Drizzle
10:35 AM 46.4 °F 40.7 °F 45.1 °F 95% 30.15 in 7.0 mi SSE 12.7 mph - N/A Rain Light Rain
10:55 AM 46.0 °F 40.2 °F 45.1 °F 97% 30.15 in 4.0 mi SSE 12.7 mph - N/A Rain Rain
11:15 AM 46.4 °F 41.9 °F 45.5 °F 97% 30.15 in 5.0 mi South 9.2 mph - N/A Rain Rain
11:35 AM 46.4 °F 41.5 °F 45.5 °F 97% 30.15 in 5.0 mi South 10.4 mph - N/A Rain Rain
11:55 AM 46.6 °F - 46.0 °F 98% 30.14 in 4.0 mi South 9.2 mph - N/A Rain Rain
12:15 PM 46.9 °F - 46.4 °F 98% 30.13 in 4.0 mi South 10.4 mph - N/A Rain Rain
12:35 PM 47.3 °F - 46.6 °F 97% 30.13 in 4.0 mi South 9.2 mph - N/A Rain Rain
12:55 PM 47.5 °F - 46.9 °F 98% 30.14 in 4.0 mi South 10.4 mph - N/A Rain Rain
1:15 PM 47.3 °F - 46.8 °F 98% 30.14 in 4.0 mi South 8.1 mph - 0.01 in Rain Rain
1:35 PM 47.5 °F - 47.3 °F 99% 30.12 in 3.0 mi South 5.8 mph - 0.01 in Rain Rain
1:55 PM 47.5 °F - 47.3 °F 99% 30.11 in 4.0 mi SSE 6.9 mph - 0.01 in Rain Light Rain
2:15 PM 47.5 °F - 47.3 °F 99% 30.11 in 5.0 mi SSE 8.1 mph - N/A Rain Light Rain
2:35 PM 47.5 °F - 47.1 °F 99% 30.11 in 7.0 mi South 8.1 mph - N/A   Overcast
2:55 PM 47.7 °F - 47.3 °F 99% 30.12 in 7.0 mi South 8.1 mph - N/A   Overcast
3:15 PM 47.7 °F - 47.3 °F 99% 30.12 in 3.0 mi South 9.2 mph - N/A Rain Rain
3:35 PM 47.7 °F - 47.5 °F 99% 30.12 in 2.5 mi South 8.1 mph - N/A   Light Drizzle
3:55 PM 47.7 °F - 47.5 °F 99% 30.13 in 2.0 mi South 8.1 mph - N/A   Overcast
4:15 PM 47.7 °F - 47.5 °F 99% 30.13 in 1.2 mi South 8.1 mph - N/A   Overcast
4:35 PM 47.7 °F - 47.5 °F 99% 30.13 in 1.2 mi South 6.9 mph - N/A   Overcast
4:55 PM 47.7 °F - 47.7 °F 100% 30.13 in 2.0 mi South 6.9 mph - N/A   Overcast
5:15 PM 47.8 °F - 47.7 °F 99% 30.14 in 2.0 mi South 6.9 mph - N/A   Overcast
5:35 PM 47.8 °F - 47.8 °F 100% 30.15 in 2.5 mi South 5.8 mph - N/A   Overcast
5:55 PM 47.8 °F - 47.8 °F 100% 30.15 in 3.0 mi South 6.9 mph - N/A   Overcast
6:15 PM 47.8 °F - 47.8 °F 100% 30.17 in 3.0 mi South 4.6 mph - N/A   Overcast
6:35 PM 47.8 °F - 47.8 °F 100% 30.16 in 3.0 mi Calm Calm - 0.01 in   Overcast
6:55 PM 48.2 °F - 47.8 °F 99% 30.17 in 3.0 mi SSW 4.6 mph - 0.01 in   Overcast
7:15 PM 48.2 °F - 47.8 °F 99% 30.18 in 2.5 mi SSW 3.5 mph - N/A   Overcast
7:35 PM 48.2 °F - 48.2 °F 100% 30.18 in 2.0 mi SSW 4.6 mph - N/A   Overcast
7:55 PM 48.2 °F - 48.2 °F 100% 30.18 in 1.5 mi SSW 3.5 mph - N/A   Overcast
8:15 PM 47.8 °F - 47.8 °F 100% 30.18 in 1.5 mi Calm Calm - N/A   Overcast
8:35 PM 47.7 °F - 47.7 °F 100% 30.19 in 1.2 mi Calm Calm - N/A   Overcast
8:55 PM 47.7 °F - 47.7 °F 100% 30.18 in 1.2 mi Calm Calm - N/A   Overcast
9:15 PM 47.7 °F - 47.7 °F 100% 30.18 in 1.0 mi Calm Calm - N/A   Overcast
9:35 PM 47.7 °F - 47.7 °F 100% 30.19 in 1.0 mi Calm Calm - N/A   Overcast
9:55 PM 47.5 °F - 47.5 °F 100% 30.19 in 0.8 mi Calm Calm - 0.01 in   Overcast
10:15 PM 47.7 °F - 47.7 °F 100% 30.20 in 0.8 mi Calm Calm - N/A   Overcast
10:35 PM 47.5 °F - 47.5 °F 100% 30.20 in 0.5 mi Calm Calm - N/A Fog Fog
10:55 PM 47.5 °F - 47.5 °F 100% 30.19 in 0.2 mi Calm Calm - N/A Fog Fog
11:15 PM 47.5 °F - 47.5 °F 100% 30.20 in 0.2 mi Calm Calm - N/A Fog Fog
11:35 PM 47.3 °F - 47.3 °F 100% 30.19 in 0.2 mi NNW 5.8 mph - N/A Fog Fog
11:55 PM 47.3 °F - 47.3 °F 100% 30.19 in 0.5 mi NNW 6.9 mph - N/A Fog Fog